Content
SEND FEEDBACK

Daily
Averages
Monthly
Summary
Mexico

CHETUMAL - AIRPORT, QUINTANA ROO


Home > North America > Mexico > Quintana Roo
Elevation: 36 feet     Latitude: 18 30N     Longitude: 088 19W

WEATHER
 
SELECT A DAY
Number of Records: 120,716;   Date Range: 1/1/95 - 4/18/14
 
SHARE

PRINT THIS DATA

[ ← Previous Day ]
WEATHER ALMANAC - JANUARY 23, 2013
[ Next Day → ]
[ °C ]   °F
Weather ElementAverageHighLow
Temperature70.3 °F73 °F (2:50 pm)68 °F (6:40 pm)
Dewpoint64 °F71 °F (11:50 am)60.8 °F (4:45 pm)
Humidity80.4 %96 % (8:50 am)73 % (9:40 am)
Barometer30.16 in30.20 in (8:50 am)30.12 in (6:00 am)
Wind Speed3.4 mph11.5 mph (1:45 pm)
Weather ElementAverage
Visibility5.9 mi
Wind DirectionSSE (146.7 °)

Weather ElementTotal
Precipitation---
Cooling Degree Days5.5 (Base 65)
Growing Degree Days20.5 (Base 50)
Averaged from 21 records on January 23, 2013
WEATHER CONDITIONS BREAKOUT
WIND DIRECTION BREAKOUT
WEATHER BY HOUR - JANUARY 23, 2013
[ °C ]   °F
Local TimeTemperatureDewpointHumidityBarometerVisibilityWind DirectionWind SpeedGust SpeedPrecipitationEventsConditions
6:00 AM69.8 °F62.6 °F78 %30.12 in5.0 miCalmHaze
6:40 AM69.8 °F62.6 °F78 %30.12 in5.0 miCalmHaze
7:40 AM69.8 °F62.6 °F78 %30.15 in5.0 miCalmRainRain
8:45 AM69.8 °F62.6 °F78 %30.19 in4.0 miCalmRainRain
8:50 AM71.0 °F70.0 °F96 %30.20 in6.0 miNorth2.2 mphRainLight Rain
9:40 AM71.6 °F62.6 °F73 %30.19 in7.0 miCalmOvercast
10:44 AM71.6 °F62.6 °F73 %30.19 in4.0 miCalmRainRain
11:43 AM71.6 °F62.6 °F73 %30.19 in5.0 miCalmRainRain
11:50 AM72.0 °F71.0 °F94 %30.19 in6.0 miNorth4.5 mphRainLight Rain
12:40 PM69.8 °F62.6 °F78 %30.16 in6.0 miCalmHaze
1:45 PM71.6 °F62.6 °F73 %30.13 in7.0 miNorth (360°)11.5 mphOvercast
2:40 PM71.6 °F62.6 °F73 %30.13 in7.0 miNorth (360°)11.5 mphOvercast
2:50 PM73.0 °F69.0 °F84 %30.12 in6.0 miNNW (340°)2.2 mphRainLight Drizzle
3:40 PM71.6 °F62.6 °F73 %30.12 in7.0 miNorth (360°)9.2 mphOvercast
4:45 PM69.8 °F60.8 °F73 %30.14 in7.0 miNNW (330°)11.5 mphOvercast
5:40 PM69.8 °F60.8 °F73 %30.16 in7.0 miNNW (330°)9.2 mphOvercast
5:50 PM70.0 °F68.0 °F93 %30.16 in5.0 miNNW (340°)4.5 mphRainDrizzle
6:40 PM68.0 °F60.8 °F78 %30.15 in7.0 miCalmOvercast
7:40 PM68.0 °F60.8 °F78 %30.16 in7.0 miCalmOvercast
8:45 PM69.0 °F68.0 °F96 %30.19 in5.0 miNNW (340°)2.2 mphRainLight Rain
11:45 PM68.0 °F67.0 °F96 %30.17 in5.0 miNW (320°)2.2 mphPartly Cloudy
Hourly data recorded from MMCM, located 1.34 miles away from Chetumal - Airport, Quintana Roo







STORIES FROM OUR PARTNERS